M I D A S
Marine Information and Data Acquisition System
Tripno 220 of the Zeeleeuw from 2002-02-21 08:39:20 to 2002-02-21 10:52:40
Back to CruiseResearch ActivitiesStationsMapUnderway DataData graphs

EquipmentUnitsComments
TimeDGPSUTC
LatitudeDGPSDM.mWGS84
LongitudeDGPSDM.mWGS84
SpeedMeteo Stationm/sRelative wind speed
DirectionMeteo StationdegRelative wind direction
TemperatureMeteo Stationdeg CelciusAir temperature
PressureMeteo StationPaAtmospheric pressure
HumidityMeteo Station%Relative humidity
Missing or incorrect values are displayed as -999
Metereological data collected by the RV Zeeleeuw from 2002-02-21 08:39:20 to 2002-02-21 10:52:40
                                                                                    Next 1000 lines
Time Latitude Longitude Speed Direction Temperature Pressure Humidity
2002-02-21 08:39:26 51°13.686 2°55.904 1.7 237 6 101890 44
2002-02-21 08:39:31 51°13.687 2°55.904 1.1 264 6 101890 44
2002-02-21 08:39:36 51°13.687 2°55.903 1.4 261 6 101890 44
2002-02-21 08:39:41 51°13.688 2°55.901 2.8 221 6 101890 44
2002-02-21 08:39:46 51°13.689 2°55.898 3 224 6 101890 44
2002-02-21 08:39:50 51°13.689 2°55.894 1.1 211 6 101880 45
2002-02-21 08:39:57 51°13.691 2°55.886 2.5 209 6 101880 45
2002-02-21 08:40:02 51°13.692 2°55.88 1.9 206 6 101890 44
2002-02-21 08:40:07 51°13.694 2°55.872 3.1 259 6 101890 44
2002-02-21 08:40:12 51°13.695 2°55.864 1.7 260 6 101890 44
2002-02-21 08:40:17 51°13.697 2°55.855 4.3 266 6 101890 44
2002-02-21 08:40:22 51°13.698 2°55.845 4.3 281 6 101890 45
2002-02-21 08:40:27 51°13.7 2°55.835 4.3 276 6 101890 45
2002-02-21 08:40:32 51°13.702 2°55.824 2.5 246 6 101890 45
2002-02-21 08:40:37 51°13.703 2°55.815 2.6 291 6 101890 45
2002-02-21 08:40:42 51°13.705 2°55.805 2.4 282 6 101890 45
2002-02-21 08:40:46 51°13.706 2°55.798 3.3 267 6 101890 45
2002-02-21 08:40:51 51°13.707 2°55.788 4 263 6 101890 45
2002-02-21 08:40:56 51°13.707 2°55.779 2.5 245 6 101890 45
2002-02-21 08:41:01 51°13.708 2°55.769 2.3 249 6 101890 45
2002-02-21 08:41:06 51°13.709 2°55.76 1.1 233 6 101890 45
2002-02-21 08:41:11 51°13.71 2°55.751 3.7 267 6 101890 44
2002-02-21 08:41:16 51°13.71 2°55.743 1.1 241 6 101890 44
2002-02-21 08:41:21 51°13.71 2°55.735 1.6 221 6 101890 45
2002-02-21 08:41:26 51°13.71 2°55.728 1 249 6 101890 45
2002-02-21 08:41:31 51°13.711 2°55.72 2.5 206 6 101890 44
2002-02-21 08:41:36 51°13.71 2°55.714 3.9 208 6 101890 44
2002-02-21 08:41:41 51°13.71 2°55.708 4.7 214 6 101890 44
2002-02-21 08:41:46 51°13.711 2°55.705 5 195 6 101890 44
2002-02-21 08:41:51 51°13.712 2°55.703 4.5 189 6.1 101890 44
2002-02-21 08:41:56 51°13.713 2°55.704 5.9 146 6.1 101890 44
2002-02-21 08:42:00 51°13.716 2°55.705 6.6 153 6.1 101890 44
2002-02-21 08:42:06 51°13.72 2°55.707 6.3 144 6.1 101890 44
2002-02-21 08:42:11 51°13.725 2°55.708 5.8 118 6.1 101890 44
2002-02-21 08:42:16 51°13.73 2°55.708 9.1 138 6.1 101890 44
2002-02-21 08:42:21 51°13.737 2°55.707 6.5 111 6.1 101880 44
2002-02-21 08:42:26 51°13.745 2°55.704 6.7 117 6.1 101880 44
2002-02-21 08:42:31 51°13.753 2°55.699 7.6 123 6.1 101880 44
2002-02-21 08:42:36 51°13.761 2°55.692 6.4 116 6.1 101880 44
2002-02-21 08:42:41 51°13.77 2°55.684 6.9 134 6.1 101880 44
2002-02-21 08:42:46 51°13.779 2°55.676 5.6 122 6.1 101880 44
2002-02-21 08:42:51 51°13.789 2°55.669 7 128 6.1 101880 45
2002-02-21 08:42:56 51°13.799 2°55.66 9.2 115 6.1 101880 45
2002-02-21 08:43:01 51°13.809 2°55.652 9.5 111 6.1 101890 45
2002-02-21 08:43:06 51°13.819 2°55.644 8.2 115 6.1 101890 45
2002-02-21 08:43:11 51°13.83 2°55.635 7.5 119 6.1 101890 46
2002-02-21 08:43:16 51°13.84 2°55.626 9.1 117 6.1 101890 46
2002-02-21 08:43:21 51°13.851 2°55.617 9.9 122 6.1 101890 45
2002-02-21 08:43:26 51°13.863 2°55.609 9.7 126 6.1 101890 45
2002-02-21 08:43:31 51°13.874 2°55.601 9.3 123 6.1 101890 47
2002-02-21 08:43:36 51°13.886 2°55.592 9.7 122 6.1 101890 47
2002-02-21 08:43:41 51°13.897 2°55.583 11.1 118 6.1 101890 49
2002-02-21 08:43:46 51°13.909 2°55.575 12.6 124 6.1 101890 49
2002-02-21 08:43:51 51°13.92 2°55.566 10.4 117 6.1 101890 49
2002-02-21 08:43:56 51°13.932 2°55.558 11.6 121 6.1 101890 49
2002-02-21 08:44:01 51°13.944 2°55.549 10.1 116 6.1 101890 47
2002-02-21 08:44:06 51°13.955 2°55.541 9.7 118 6.1 101890 47
2002-02-21 08:44:11 51°13.967 2°55.532 10.2 121 6.1 101890 47
2002-02-21 08:44:16 51°13.978 2°55.524 10.5 113 6.1 101890 47
2002-02-21 08:44:21 51°13.99 2°55.515 10.5 114 6.1 101890 48
2002-02-21 08:44:26 51°14.002 2°55.507 9.8 122 6.1 101890 48
2002-02-21 08:44:31 51°14.014 2°55.498 11 119 6.1 101890 49
2002-02-21 08:44:36 51°14.025 2°55.49 9.9 115 6.1 101890 49
2002-02-21 08:44:41 51°14.037 2°55.481 10.9 114 6.1 101890 49
2002-02-21 08:44:47 51°14.051 2°55.471 11.6 119 6.1 101890 49
2002-02-21 08:44:51 51°14.061 2°55.464 11.7 118 6.1 101890 50
2002-02-21 08:44:56 51°14.072 2°55.455 11.2 120 6.1 101890 50
2002-02-21 08:45:01 51°14.084 2°55.446 13.1 120 6 101900 49
2002-02-21 08:45:06 51°14.095 2°55.438 11.2 118 6 101900 49
2002-02-21 08:45:11 51°14.107 2°55.429 10.5 121 6.1 101900 48
2002-02-21 08:45:16 51°14.118 2°55.42 10.5 119 6.1 101900 48
2002-02-21 08:45:21 51°14.13 2°55.41 11.3 116 6 101890 46
2002-02-21 08:45:26 51°14.141 2°55.401 9.6 118 6 101890 46
2002-02-21 08:45:31 51°14.152 2°55.392 10.4 114 6 101890 46
2002-02-21 08:45:36 51°14.163 2°55.381 9.6 120 6 101890 46
2002-02-21 08:45:41 51°14.174 2°55.371 10.6 113 6 101900 44
2002-02-21 08:45:46 51°14.185 2°55.36 8.9 116 6 101900 44
2002-02-21 08:45:51 51°14.196 2°55.349 11.5 113 6 101900 47
2002-02-21 08:45:56 51°14.206 2°55.337 10.5 114 6 101900 47
2002-02-21 08:46:01 51°14.216 2°55.325 10.7 114 6 101900 48
2002-02-21 08:46:06 51°14.226 2°55.312 8.6 112 6 101900 48
2002-02-21 08:46:11 51°14.236 2°55.299 10 115 6 101900 48
2002-02-21 08:46:16 51°14.245 2°55.285 8.5 101 6 101900 48
2002-02-21 08:46:21 51°14.254 2°55.271 8.6 111 6 101890 47
2002-02-21 08:46:26 51°14.263 2°55.255 7.7 115 6 101890 47
2002-02-21 08:46:31 51°14.271 2°55.24 7.8 115 6 101900 50
2002-02-21 08:46:36 51°14.28 2°55.224 11.5 115 6 101900 50
2002-02-21 08:46:41 51°14.288 2°55.208 10.8 101 6 101900 52
2002-02-21 08:46:46 51°14.296 2°55.192 10.3 100 6 101900 52
2002-02-21 08:46:51 51°14.304 2°55.176 9.4 98 6 101890 53
2002-02-21 08:46:56 51°14.312 2°55.16 9.6 104 6 101890 53
2002-02-21 08:47:01 51°14.32 2°55.143 7.4 125 6 101900 51
2002-02-21 08:47:06 51°14.327 2°55.127 8.7 107 6 101900 51
2002-02-21 08:47:11 51°14.335 2°55.11 11 105 6 101900 51
2002-02-21 08:47:16 51°14.343 2°55.094 9.2 100 6 101900 51
2002-02-21 08:47:21 51°14.35 2°55.078 10.7 100 6 101910 50
2002-02-21 08:47:26 51°14.358 2°55.062 12.1 102 6 101910 50
2002-02-21 08:47:31 51°14.366 2°55.046 9.1 107 6 101900 49
2002-02-21 08:47:36 51°14.373 2°55.029 12.1 114 6 101900 49
2002-02-21 08:47:41 51°14.381 2°55.015 12.5 104 6 101900 48
2002-02-21 08:47:46 51°14.388 2°55.001 11.8 106 6 101900 48
2002-02-21 08:47:51 51°14.396 2°54.986 11.6 105 5.9 101900 45
2002-02-21 08:47:56 51°14.403 2°54.972 10.9 105 5.9 101900 45
2002-02-21 08:48:01 51°14.412 2°54.959 12 113 6 101910 47
2002-02-21 08:48:06 51°14.421 2°54.947 10.5 118 6 101910 47
2002-02-21 08:48:11 51°14.43 2°54.936 12.3 120 5.9 101900 46
2002-02-21 08:48:16 51°14.439 2°54.927 12 123 5.9 101900 46
2002-02-21 08:48:21 51°14.448 2°54.919 11.7 119 5.9 101890 46
2002-02-21 08:48:26 51°14.458 2°54.913 11.1 126 5.9 101890 46
2002-02-21 08:48:31 51°14.466 2°54.907 11.1 123 6 101890 48
2002-02-21 08:48:36 51°14.475 2°54.902 12.7 127 6 101890 48
2002-02-21 08:48:41 51°14.484 2°54.897 12.4 138 6 101900 45
2002-02-21 08:48:46 51°14.492 2°54.892 11.5 138 6 101900 45
2002-02-21 08:48:51 51°14.501 2°54.89 12.6 135 6 101890 48
2002-02-21 08:48:56 51°14.511 2°54.89 12.6 143 6 101890 48
2002-02-21 08:49:01 51°14.52 2°54.889 12.3 139 6 101900 48
2002-02-21 08:49:06 51°14.528 2°54.891 11.3 146 6 101900 48
2002-02-21 08:49:11 51°14.537 2°54.892 11.2 147 6 101900 46
2002-02-21 08:49:16 51°14.545 2°54.892 10.1 139 6 101900 46
2002-02-21 08:49:21 51°14.552 2°54.896 11.5 141 6 101890 45
2002-02-21 08:49:26 51°14.559 2°54.895 11.9 140 6 101890 45
2002-02-21 08:49:31 51°14.566 2°54.898 11.5 135 6 101900 46
2002-02-21 08:49:36 51°14.574 2°54.899 11.4 131 6 101900 46
2002-02-21 08:49:40 51°14.58 2°54.9 9.7 137 6 101900 49
2002-02-21 08:49:46 51°14.589 2°54.901 10.7 128 6 101900 49
2002-02-21 08:49:51 51°14.597 2°54.9 10.7 130 6 101910 48
2002-02-21 08:49:56 51°14.604 2°54.901 11.3 130 6 101910 48
2002-02-21 08:50:01 51°14.612 2°54.899 12.1 128 6 101900 51
2002-02-21 08:50:06 51°14.62 2°54.897 12.2 124 6 101900 51
2002-02-21 08:50:11 51°14.628 2°54.896 10.8 129 6 101900 53
2002-02-21 08:50:16 51°14.636 2°54.893 11.3 130 6 101900 53
2002-02-21 08:50:21 51°14.644 2°54.891 10.3 124 6.1 101900 50
2002-02-21 08:50:26 51°14.652 2°54.89 10 126 6.1 101900 50
2002-02-21 08:50:31 51°14.661 2°54.888 11.4 125 6.1 101890 48
2002-02-21 08:50:36 51°14.669 2°54.888 10.5 132 6.1 101890 48
2002-02-21 08:50:41 51°14.678 2°54.888 11.2 132 6 101890 47
2002-02-21 08:50:46 51°14.686 2°54.887 10.5 133 6 101890 47
2002-02-21 08:50:51 51°14.695 2°54.888 10.2 135 6 101880 45
2002-02-21 08:50:56 51°14.704 2°54.889 9.5 133 6 101880 45
2002-02-21 08:51:01 51°14.713 2°54.89 12.2 130 6 101890 47
2002-02-21 08:51:06 51°14.722 2°54.891 10.8 133 6 101890 47
2002-02-21 08:51:11 51°14.731 2°54.892 10.2 133 6 101890 47
2002-02-21 08:51:16 51°14.741 2°54.892 11.4 128 6 101890 47
2002-02-21 08:51:21 51°14.75 2°54.892 11.7 124 6 101890 45
2002-02-21 08:51:26 51°14.759 2°54.894 9.4 131 6 101890 45
2002-02-21 08:51:31 51°14.769 2°54.894 11.1 125 6 101890 44
2002-02-21 08:51:36 51°14.778 2°54.896 10.1 125 6 101890 44
2002-02-21 08:51:41 51°14.787 2°54.897 9.5 125 6 101890 45
2002-02-21 08:51:46 51°14.796 2°54.898 10.1 125 6 101890 45
2002-02-21 08:51:51 51°14.805 2°54.901 10.4 130 6 101890 46
2002-02-21 08:51:56 51°14.814 2°54.902 10.9 128 6 101890 46
2002-02-21 08:52:01 51°14.823 2°54.903 9.8 132 6 101890 45
2002-02-21 08:52:06 51°14.832 2°54.905 9.5 122 6 101890 45
2002-02-21 08:52:11 51°14.841 2°54.908 9.6 143 6 101910 50
2002-02-21 08:52:16 51°14.85 2°54.91 10.5 136 6 101910 50
2002-02-21 08:52:21 51°14.859 2°54.912 12.2 132 6 101890 50
2002-02-21 08:52:26 51°14.868 2°54.916 10.4 134 6 101890 50
2002-02-21 08:52:31 51°14.877 2°54.917 12.1 132 6 101890 50
2002-02-21 08:52:36 51°14.885 2°54.918 9.7 129 6 101890 50
2002-02-21 08:52:41 51°14.894 2°54.919 9.7 127 6 101890 48
2002-02-21 08:52:46 51°14.902 2°54.919 10.2 125 6 101890 48
2002-02-21 08:52:51 51°14.911 2°54.916 11 121 6 101880 47
2002-02-21 08:52:56 51°14.919 2°54.914 11.6 127 6 101880 47
2002-02-21 08:53:01 51°14.928 2°54.91 9.1 121 6 101890 44
2002-02-21 08:53:06 51°14.936 2°54.909 8.9 130 6 101890 44
2002-02-21 08:53:11 51°14.945 2°54.904 9.9 120 6 101880 46
2002-02-21 08:53:16 51°14.953 2°54.902 10.5 123 6 101880 46
2002-02-21 08:53:21 51°14.962 2°54.9 10.3 131 6 101900 47
2002-02-21 08:53:26 51°14.97 2°54.895 9 123 6 101900 47
2002-02-21 08:53:31 51°14.978 2°54.893 9.8 124 6 101890 50
2002-02-21 08:53:36 51°14.987 2°54.891 10 128 6 101890 50
2002-02-21 08:53:41 51°14.996 2°54.888 9.9 121 6 101890 46
2002-02-21 08:53:46 51°15.004 2°54.886 12.1 128 6 101890 46
2002-02-21 08:53:51 51°15.012 2°54.883 11.6 122 6 101890 45
2002-02-21 08:53:56 51°15.021 2°54.881 9.8 122 6 101890 45
2002-02-21 08:54:01 51°15.029 2°54.877 9.6 118 6 101890 45
2002-02-21 08:54:06 51°15.037 2°54.874 10.5 115 6 101890 45
2002-02-21 08:54:11 51°15.046 2°54.871 10.1 118 6 101910 45
2002-02-21 08:54:16 51°15.054 2°54.865 11.1 121 6 101910 45
2002-02-21 08:54:21 51°15.063 2°54.862 10.9 124 6 101900 43
2002-02-21 08:54:26 51°15.072 2°54.856 10.8 123 6 101900 43
2002-02-21 08:54:31 51°15.081 2°54.852 10.2 119 6 101900 46
2002-02-21 08:54:36 51°15.09 2°54.848 10.3 122 6 101900 46
2002-02-21 08:54:41 51°15.098 2°54.843 9.9 119 6 101900 45
2002-02-21 08:54:46 51°15.107 2°54.838 10.1 116 6 101900 45
2002-02-21 08:54:51 51°15.116 2°54.834 9.9 121 6 101900 45
2002-02-21 08:54:56 51°15.125 2°54.827 11.2 118 6 101900 45
2002-02-21 08:55:01 51°15.135 2°54.822 9.9 118 6 101900 45
2002-02-21 08:55:07 51°15.146 2°54.814 10.4 117 6 101900 45
2002-02-21 08:55:11 51°15.154 2°54.809 9.9 118 6 101890 46
2002-02-21 08:55:16 51°15.164 2°54.801 11.4 117 6 101890 46
2002-02-21 08:55:21 51°15.174 2°54.795 12.3 123 6 101890 46
2002-02-21 08:55:26 51°15.184 2°54.788 10.9 120 6 101890 46
2002-02-21 08:55:31 51°15.195 2°54.783 12.4 124 6 101900 45
2002-02-21 08:55:36 51°15.206 2°54.777 11.9 121 6 101900 45
2002-02-21 08:55:40 51°15.215 2°54.774 10.5 122 6 101910 45
2002-02-21 08:55:46 51°15.228 2°54.768 11 122 6 101910 45
2002-02-21 08:55:51 51°15.239 2°54.761 10.8 118 6 101890 47
2002-02-21 08:55:56 51°15.251 2°54.756 11.9 122 6 101890 47
2002-02-21 08:56:01 51°15.262 2°54.748 10.9 114 6 101900 44
2002-02-21 08:56:06 51°15.274 2°54.742 10.8 117 6 101900 44
2002-02-21 08:56:11 51°15.285 2°54.735 10.9 118 6 101890 46
2002-02-21 08:56:16 51°15.296 2°54.729 11.3 124 6 101890 46
2002-02-21 08:56:21 51°15.307 2°54.723 10.6 118 6 101900 44
2002-02-21 08:56:26 51°15.319 2°54.717 11.4 128 6 101900 44
2002-02-21 08:56:31 51°15.33 2°54.711 9.9 125 6 101890 42
2002-02-21 08:56:36 51°15.342 2°54.706 12.6 126 6 101890 42
2002-02-21 08:56:41 51°15.354 2°54.701 11.4 118 6 101900 43
2002-02-21 08:56:46 51°15.365 2°54.696 10.9 125 6 101900 43
2002-02-21 08:56:51 51°15.375 2°54.692 11.9 122 6 101890 48
2002-02-21 08:56:56 51°15.386 2°54.687 10.7 125 6 101890 48
2002-02-21 08:57:01 51°15.397 2°54.684 10.8 124 6 101900 52
2002-02-21 08:57:05 51°15.406 2°54.68 10 120 6 101900 52
2002-02-21 08:57:11 51°15.418 2°54.676 12 118 6 101900 48
2002-02-21 08:57:16 51°15.429 2°54.673 10.7 125 6 101900 48
2002-02-21 08:57:21 51°15.441 2°54.67 12.3 129 6 101900 48
2002-02-21 08:57:26 51°15.452 2°54.666 12 127 6 101900 48
2002-02-21 08:57:31 51°15.464 2°54.664 10.5 130 6.1 101910 50
2002-02-21 08:57:36 51°15.476 2°54.66 12.7 128 6.1 101910 50
2002-02-21 08:57:41 51°15.488 2°54.658 13.1 128 6.1 101910 47
2002-02-21 08:57:46 51°15.499 2°54.655 12.1 121 6.1 101910 47
2002-02-21 08:57:51 51°15.511 2°54.652 12.8 119 6 101900 46
2002-02-21 08:57:56 51°15.523 2°54.649 14 123 6 101900 46
2002-02-21 08:58:01 51°15.535 2°54.646 11.6 123 6 101910 46
2002-02-21 08:58:06 51°15.547 2°54.644 12.6 125 6 101910 46
2002-02-21 08:58:11 51°15.558 2°54.641 13.8 127 6.1 101900 48
2002-02-21 08:58:16 51°15.569 2°54.639 12.7 124 6.1 101900 48
2002-02-21 08:58:21 51°15.581 2°54.637 13 123 6 101890 45
2002-02-21 08:58:26 51°15.593 2°54.635 12 120 6 101890 45
2002-02-21 08:58:31 51°15.604 2°54.632 9.5 114 6.1 101900 49
2002-02-21 08:58:36 51°15.615 2°54.628 12.4 119 6.1 101900 49
2002-02-21 08:58:41 51°15.625 2°54.625 11.5 121 6 101900 46
2002-02-21 08:58:46 51°15.636 2°54.621 10.1 122 6 101900 46
2002-02-21 08:58:51 51°15.647 2°54.618 8.3 125 6 101900 44
2002-02-21 08:58:56 51°15.658 2°54.614 12.6 121 6 101900 44
2002-02-21 08:59:01 51°15.67 2°54.61 11.1 124 6 101910 48
2002-02-21 08:59:06 51°15.681 2°54.605 11.3 120 6 101910 48
2002-02-21 08:59:11 51°15.692 2°54.6 11.1 117 6.1 101900 50
2002-02-21 08:59:16 51°15.703 2°54.594 12.5 119 6.1 101900 50
2002-02-21 08:59:21 51°15.714 2°54.589 11.3 120 6.1 101910 51
2002-02-21 08:59:26 51°15.725 2°54.582 12.6 121 6.1 101910 51
2002-02-21 08:59:31 51°15.735 2°54.577 12.5 124 6.1 101920 50
2002-02-21 08:59:36 51°15.746 2°54.571 9.9 122 6.1 101920 50
2002-02-21 08:59:41 51°15.757 2°54.566 9.8 126 6.1 101920 48
2002-02-21 08:59:47 51°15.77 2°54.559 10.2 124 6.1 101920 48
2002-02-21 08:59:51 51°15.778 2°54.555 10.5 129 6 101900 45
2002-02-21 08:59:56 51°15.789 2°54.551 12.2 133 6 101900 45
2002-02-21 09:00:01 51°15.8 2°54.546 11.4 132 6 101900 46
2002-02-21 09:00:06 51°15.81 2°54.543 12.2 133 6 101900 46
2002-02-21 09:00:11 51°15.822 2°54.538 9.9 131 6 101900 48
2002-02-21 09:00:16 51°15.832 2°54.534 11.3 132 6 101900 48
2002-02-21 09:00:21 51°15.844 2°54.529 11.5 129 6 101910 46
2002-02-21 09:00:26 51°15.855 2°54.525 11.5 131 6 101910 46
2002-02-21 09:00:31 51°15.866 2°54.52 10.7 130 6 101900 44
2002-02-21 09:00:36 51°15.877 2°54.515 11.3 133 6 101900 44
2002-02-21 09:00:40 51°15.886 2°54.512 9.8 133 6 101910 44
2002-02-21 09:00:46 51°15.9 2°54.505 11.3 125 6 101910 44
2002-02-21 09:00:51 51°15.912 2°54.5 10 126 6 101900 44
2002-02-21 09:00:56 51°15.924 2°54.495 10.2 129 6 101900 44
2002-02-21 09:01:01 51°15.936 2°54.489 11.5 128 6 101910 47
2002-02-21 09:01:06 51°15.947 2°54.483 10.9 127 6 101910 47
2002-02-21 09:01:11 51°15.959 2°54.478 10.7 128 6 101900 46
2002-02-21 09:01:16 51°15.97 2°54.474 10.9 127 6 101900 46
2002-02-21 09:01:21 51°15.981 2°54.469 10.6 131 6 101900 48
2002-02-21 09:01:26 51°15.993 2°54.463 10.4 129 6 101900 48
2002-02-21 09:01:31 51°16.004 2°54.457 10.5 125 6 101920 45
2002-02-21 09:01:35 51°16.013 2°54.452 11.7 128 6 101920 45
2002-02-21 09:01:41 51°16.027 2°54.444 11.2 126 6 101920 46
2002-02-21 09:01:46 51°16.039 2°54.437 9.7 127 6 101920 46
2002-02-21 09:01:51 51°16.051 2°54.431 9.2 126 6 101900 45
2002-02-21 09:01:56 51°16.062 2°54.424 9 124 6 101900 45
2002-02-21 09:02:01 51°16.074 2°54.417 9.7 124 6 101910 47
2002-02-21 09:02:06 51°16.086 2°54.41 9 124 6 101910 47
2002-02-21 09:02:11 51°16.097 2°54.403 9.8 124 6 101920 46
2002-02-21 09:02:16 51°16.108 2°54.396 9.4 127 6 101920 46
2002-02-21 09:02:21 51°16.119 2°54.388 11.9 129 6 101910 47
2002-02-21 09:02:26 51°16.131 2°54.382 11 128 6 101910 47
2002-02-21 09:02:31 51°16.143 2°54.375 11.7 128 6 101910 44
2002-02-21 09:02:36 51°16.154 2°54.368 11.9 129 6 101910 44
2002-02-21 09:02:41 51°16.166 2°54.361 11.2 124 6 101900 47
2002-02-21 09:02:46 51°16.177 2°54.355 10.4 129 6 101900 47
2002-02-21 09:02:50 51°16.186 2°54.35 10.8 125 6 101910 45
2002-02-21 09:02:56 51°16.2 2°54.342 11.1 124 6 101910 45
2002-02-21 09:03:01 51°16.211 2°54.335 9.7 122 6 101920 46
2002-02-21 09:03:06 51°16.221 2°54.328 10.2 124 6 101920 46
2002-02-21 09:03:11 51°16.232 2°54.321 9.6 127 6 101900 44
2002-02-21 09:03:16 51°16.242 2°54.314 10.1 125 6 101900 44
2002-02-21 09:03:21 51°16.253 2°54.308 9.6 128 6 101910 44
2002-02-21 09:03:26 51°16.264 2°54.302 10.4 127 6 101910 44
2002-02-21 09:03:31 51°16.273 2°54.297 8.8 123 6 101900 45
2002-02-21 09:03:36 51°16.281 2°54.292 8.1 121 6 101900 45
2002-02-21 09:03:41 51°16.288 2°54.288 8 119 6 101910 43
2002-02-21 09:03:46 51°16.292 2°54.284 5.8 125 6 101910 43
2002-02-21 09:03:51 51°16.296 2°54.281 7 121 6 101930 43
2002-02-21 09:03:56 51°16.298 2°54.278 6.7 123 6 101930 43
2002-02-21 09:04:01 51°16.3 2°54.275 6.7 123 6 101910 44
2002-02-21 09:04:06 51°16.302 2°54.274 6.3 123 6 101910 44
2002-02-21 09:04:11 51°16.304 2°54.271 7.6 108 6 101920 47
2002-02-21 09:04:15 51°16.305 2°54.27 5.9 126 6 101920 47
2002-02-21 09:04:21 51°16.307 2°54.266 6.9 108 6 101920 48
2002-02-21 09:04:26 51°16.308 2°54.267 7 128 6 101920 48
2002-02-21 09:04:31 51°16.309 2°54.262 7.4 111 6 101920 50
2002-02-21 09:04:36 51°16.309 2°54.261 7.1 120 6 101920 50
2002-02-21 09:04:41 51°16.31 2°54.259 7.3 111 6 101910 50
2002-02-21 09:04:46 51°16.311 2°54.258 7.2 124 6 101910 50
2002-02-21 09:04:51 51°16.311 2°54.256 6.6 121 6 101920 45
2002-02-21 09:04:56 51°16.311 2°54.254 6.7 127 6 101920 45
2002-02-21 09:05:00 51°16.312 2°54.251 6.4 113 6 101930 42
2002-02-21 09:05:06 51°16.312 2°54.252 6 141 6 101930 42
2002-02-21 09:05:11 51°16.312 2°54.247 7.5 114 6 101920 44
2002-02-21 09:05:16 51°16.312 2°54.248 6.5 140 6 101920 44
2002-02-21 09:05:20 51°16.312 2°54.243 7.2 114 6 101910 43
2002-02-21 09:05:26 51°16.312 2°54.244 5.5 134 6 101910 43
2002-02-21 09:05:31 51°16.312 2°54.24 6.3 125 6 101920 43
2002-02-21 09:05:36 51°16.311 2°54.239 7 141 6 101920 43
2002-02-21 09:05:41 51°16.311 2°54.236 6 125 6 101920 44
2002-02-21 09:05:46 51°16.311 2°54.235 5.7 139 6 101920 44
2002-02-21 09:05:51 51°16.311 2°54.233 5.6 130 6 101930 45
2002-02-21 09:05:56 51°16.31 2°54.232 6.2 142 6 101930 45
2002-02-21 09:06:01 51°16.31 2°54.229 5.6 131 6 101920 42
2002-02-21 09:06:06 51°16.309 2°54.228 5.6 139 6 101920 42
2002-02-21 09:06:11 51°16.308 2°54.226 5.9 132 6 101930 43
2002-02-21 09:06:16 51°16.308 2°54.224 5.6 124 6 101930 43
2002-02-21 09:06:21 51°16.306 2°54.223 6.2 134 6 101930 44
2002-02-21 09:06:26 51°16.306 2°54.221 5.1 123 6 101930 44
2002-02-21 09:06:31 51°16.305 2°54.219 5.4 126 6 101920 45
2002-02-21 09:06:36 51°16.304 2°54.216 5.8 108 6 101920 45
2002-02-21 09:06:41 51°16.303 2°54.214 5.5 125 6 101920 43
2002-02-21 09:06:46 51°16.302 2°54.213 6.3 126 6 101920 43
2002-02-21 09:06:51 51°16.301 2°54.21 5.4 124 6 101920 45
2002-02-21 09:06:56 51°16.299 2°54.209 5.7 129 6 101920 45
2002-02-21 09:07:01 51°16.298 2°54.207 6 126 6 101920 46
2002-02-21 09:07:06 51°16.297 2°54.206 5.6 131 6 101920 46
2002-02-21 09:07:11 51°16.295 2°54.205 5.1 144 6 101920 47
2002-02-21 09:07:16 51°16.294 2°54.202 5.4 138 6 101920 47
2002-02-21 09:07:21 51°16.292 2°54.202 6.8 150 6 101920 47
2002-02-21 09:07:26 51°16.291 2°54.197 7.4 138 6 101920 47
2002-02-21 09:07:31 51°16.289 2°54.197 5.7 134 6 101930 47
2002-02-21 09:07:36 51°16.288 2°54.195 5.8 145 6 101930 47
2002-02-21 09:07:41 51°16.287 2°54.192 5.5 128 6 101940 47
2002-02-21 09:07:46 51°16.285 2°54.192 6.4 146 6 101940 47
2002-02-21 09:07:51 51°16.284 2°54.189 7.1 135 6 101920 45
2002-02-21 09:07:56 51°16.282 2°54.189 6 146 6 101920 45
2002-02-21 09:08:01 51°16.281 2°54.186 6 140 6 101930 45
2002-02-21 09:08:06 51°16.28 2°54.185 6.2 142 6 101930 45
2002-02-21 09:08:11 51°16.279 2°54.182 6.6 134 6 101930 45
2002-02-21 09:08:16 51°16.278 2°54.181 6.7 146 6 101930 45
2002-02-21 09:08:21 51°16.277 2°54.178 7.2 134 6 101930 46
2002-02-21 09:08:26 51°16.276 2°54.178 8 146 6 101930 46
2002-02-21 09:08:31 51°16.275 2°54.176 8 148 6 101920 45
2002-02-21 09:08:36 51°16.275 2°54.173 6.8 138 6 101920 45
2002-02-21 09:08:40 51°16.274 2°54.173 7 143 6.1 101920 45
2002-02-21 09:08:46 51°16.273 2°54.17 6.3 135 6.1 101920 45
2002-02-21 09:08:51 51°16.272 2°54.17 6.3 143 6 101930 45
2002-02-21 09:08:56 51°16.272 2°54.167 7.1 131 6 101930 45
2002-02-21 09:09:00 51°16.271 2°54.169 6.1 134 6 101930 43
2002-02-21 09:09:06 51°16.27 2°54.166 6.4 139 6 101930 43
2002-02-21 09:09:11 51°16.27 2°54.164 6.9 135 6.1 101920 42
2002-02-21 09:09:16 51°16.269 2°54.163 7 136 6.1 101920 42
2002-02-21 09:09:21 51°16.268 2°54.161 6.9 133 6 101920 42
2002-02-21 09:09:26 51°16.268 2°54.16 6.9 135 6 101920 42
2002-02-21 09:09:31 51°16.267 2°54.158 5.6 133 6 101930 42
2002-02-21 09:09:36 51°16.267 2°54.156 6.2 128 6 101930 42
2002-02-21 09:09:41 51°16.266 2°54.156 5.7 135 6 101920 42
2002-02-21 09:09:46 51°16.266 2°54.154 5.7 127 6 101920 42
2002-02-21 09:09:51 51°16.266 2°54.152 5.3 118 6 101930 42
2002-02-21 09:09:56 51°16.265 2°54.151 5.3 125 6 101930 42
2002-02-21 09:10:00 51°16.265 2°54.149 5.5 123 6 101920 43
2002-02-21 09:10:06 51°16.265 2°54.147 4.9 115 6 101920 43
2002-02-21 09:10:11 51°16.266 2°54.146 5 113 6 101930 45
2002-02-21 09:10:16 51°16.265 2°54.143 5.4 117 6 101930 45
2002-02-21 09:10:21 51°16.265 2°54.142 5.1 113 6.1 101940 45
2002-02-21 09:10:26 51°16.265 2°54.138 5.2 101 6.1 101940 45
2002-02-21 09:10:30 51°16.265 2°54.138 5.2 112 6.1 101930 46
2002-02-21 09:10:36 51°16.265 2°54.135 5.4 115 6.1 101930 46
2002-02-21 09:10:41 51°16.265 2°54.133 5.7 108 6.1 101940 46
2002-02-21 09:10:46 51°16.265 2°54.131 5.7 112 6.1 101940 46
2002-02-21 09:10:51 51°16.265 2°54.129 5.3 111 6 101940 47
2002-02-21 09:10:56 51°16.265 2°54.126 5.4 109 6 101940 47
2002-02-21 09:11:01 51°16.265 2°54.125 5.3 112 6.1 101920 48
2002-02-21 09:11:06 51°16.265 2°54.122 6.1 105 6.1 101920 48
2002-02-21 09:11:11 51°16.266 2°54.121 5.5 116 6.1 101930 46
2002-02-21 09:11:16 51°16.266 2°54.117 5.3 112 6.1 101930 46
2002-02-21 09:11:21 51°16.267 2°54.116 5.9 120 6.1 101930 47
2002-02-21 09:11:26 51°16.267 2°54.114 5.9 116 6.1 101930 47
2002-02-21 09:11:31 51°16.266 2°54.111 6.7 118 6.1 101930 49
2002-02-21 09:11:36 51°16.267 2°54.11 5.6 119 6.1 101930 49
2002-02-21 09:11:41 51°16.267 2°54.107 5.7 116 6.1 101940 48
2002-02-21 09:11:46 51°16.267 2°54.107 5.5 127 6.1 101940 48
2002-02-21 09:11:51 51°16.268 2°54.104 6.5 124 6.1 101930 46
2002-02-21 09:11:56 51°16.268 2°54.103 6.5 134 6.1 101930 46
2002-02-21 09:12:01 51°16.268 2°54.101 6 125 6 101930 45
2002-02-21 09:12:06 51°16.268 2°54.1 6.6 132 6 101930 45
2002-02-21 09:12:11 51°16.268 2°54.099 6.7 133 6 101930 44
2002-02-21 09:12:16 51°16.268 2°54.096 6.5 133 6 101930 44
2002-02-21 09:12:21 51°16.269 2°54.095 6.4 137 6.1 101930 46
2002-02-21 09:12:26 51°16.269 2°54.093 7 135 6.1 101930 46
2002-02-21 09:12:31 51°16.269 2°54.092 6.5 138 6.1 101930 46
2002-02-21 09:12:36 51°16.27 2°54.09 5.7 135 6.1 101930 46
2002-02-21 09:12:41 51°16.27 2°54.089 5.9 136 6.1 101930 44
2002-02-21 09:12:46 51°16.27 2°54.087 6.3 135 6.1 101930 44
2002-02-21 09:12:51 51°16.27 2°54.087 6.7 146 6 101930 43
2002-02-21 09:12:56 51°16.27 2°54.083 6.3 133 6 101930 43
2002-02-21 09:13:01 51°16.27 2°54.084 5.6 146 6.1 101940 43
2002-02-21 09:13:06 51°16.27 2°54.08 5.3 142 6.1 101940 43
2002-02-21 09:13:11 51°16.271 2°54.08 5.8 135 6.1 101950 44
2002-02-21 09:13:16 51°16.271 2°54.078 5.3 134 6.1 101950 44
2002-02-21 09:13:21 51°16.271 2°54.076 5.8 126 6.1 101930 45
2002-02-21 09:13:26 51°16.271 2°54.076 5.2 138 6.1 101930 45
2002-02-21 09:13:31 51°16.271 2°54.074 5.7 130 6.1 101930 46
2002-02-21 09:13:36 51°16.272 2°54.074 4.9 146 6.1 101930 46
2002-02-21 09:13:41 51°16.272 2°54.072 5.7 136 6.1 101930 46
2002-02-21 09:13:46 51°16.272 2°54.071 5.3 139 6.1 101930 46
2002-02-21 09:13:51 51°16.272 2°54.07 5.1 139 6.1 101920 47
2002-02-21 09:13:56 51°16.272 2°54.069 5.8 143 6.1 101920 47
2002-02-21 09:14:01 51°16.272 2°54.068 5.7 148 6.1 101930 45
2002-02-21 09:14:06 51°16.272 2°54.066 5.5 133 6.1 101930 45
2002-02-21 09:14:11 51°16.273 2°54.065 5.9 137 6.1 101940 45
2002-02-21 09:14:16 51°16.273 2°54.066 5.4 146 6.1 101940 45
2002-02-21 09:14:21 51°16.273 2°54.062 6.1 129 6.1 101940 44
2002-02-21 09:14:26 51°16.273 2°54.063 6.6 143 6.1 101940 44
2002-02-21 09:14:31 51°16.273 2°54.06 5.4 132 6.1 101930 45
2002-02-21 09:14:36 51°16.272 2°54.06 6.2 138 6.1 101930 45
2002-02-21 09:14:41 51°16.272 2°54.058 5.3 127 6.1 101940 45
2002-02-21 09:14:46 51°16.272 2°54.058 5.5 141 6.1 101940 45
2002-02-21 09:14:51 51°16.272 2°54.055 4.7 127 6.1 101940 45
2002-02-21 09:14:56 51°16.272 2°54.056 5.1 149 6.1 101940 45
2002-02-21 09:15:01 51°16.272 2°54.052 5.7 127 6.1 101930 46
2002-02-21 09:15:05 51°16.272 2°54.053 5.3 136 6.1 101930 46
2002-02-21 09:15:11 51°16.272 2°54.05 7.2 129 6.2 101930 47
2002-02-21 09:15:16 51°16.272 2°54.049 7.8 130 6.2 101930 47
2002-02-21 09:15:21 51°16.271 2°54.047 7.8 129 6.2 101930 49
2002-02-21 09:15:26 51°16.271 2°54.046 6.2 127 6.2 101930 49
2002-02-21 09:15:31 51°16.271 2°54.045 7.3 130 6.2 101930 49
2002-02-21 09:15:36 51°16.271 2°54.042 7.1 119 6.2 101930 49
2002-02-21 09:15:41 51°16.27 2°54.042 7.3 127 6.2 101920 46
2002-02-21 09:15:46 51°16.27 2°54.039 8.3 121 6.2 101920 46
2002-02-21 09:15:51 51°16.269 2°54.039 7.8 125 6.1 101940 46
2002-02-21 09:15:56 51°16.269 2°54.036 8.1 111 6.1 101940 46
2002-02-21 09:16:01 51°16.269 2°54.035 6.2 115 6.1 101940 44
2002-02-21 09:16:06 51°16.268 2°54.033 6.7 116 6.1 101940 44
2002-02-21 09:16:11 51°16.268 2°54.031 7.5 111 6.1 101940 43
2002-02-21 09:16:16 51°16.267 2°54.03 7 119 6.1 101940 43
2002-02-21 09:16:21 51°16.267 2°54.027 7.3 108 6.1 101930 44
2002-02-21 09:16:26 51°16.266 2°54.026 5.6 113 6.1 101930 44
2002-02-21 09:16:31 51°16.266 2°54.023 5.1 113 6.1 101940 44
2002-02-21 09:16:36 51°16.266 2°54.021 5.3 118 6.1 101940 44
2002-02-21 09:16:41 51°16.265 2°54.019 6.5 115 6.1 101940 43
2002-02-21 09:16:46 51°16.265 2°54.017 6.1 118 6.1 101940 43
2002-02-21 09:16:51 51°16.264 2°54.015 5.9 120 6.1 101940 46
2002-02-21 09:16:56 51°16.264 2°54.012 6.4 115 6.1 101940 46
2002-02-21 09:17:01 51°16.263 2°54.011 7.4 126 6.1 101940 47
2002-02-21 09:17:06 51°16.263 2°54.008 6.3 112 6.1 101940 47
2002-02-21 09:17:11 51°16.263 2°54.007 6.4 125 6.1 101940 47
2002-02-21 09:17:16 51°16.263 2°54.004 7.4 119 6.1 101940 47
2002-02-21 09:17:21 51°16.262 2°54.003 6.5 129 6.1 101930 46
2002-02-21 09:17:26 51°16.262 2°54 6.7 121 6.1 101930 46
2002-02-21 09:17:31 51°16.262 2°53.999 4.9 125 6.1 101930 46
2002-02-21 09:17:36 51°16.261 2°53.996 5.4 120 6.1 101930 46
2002-02-21 09:17:41 51°16.261 2°53.994 5.2 131 6.1 101940 48
2002-02-21 09:17:46 51°16.26 2°53.992 5.4 128 6.1 101940 48
2002-02-21 09:17:51 51°16.26 2°53.99 5.1 129 6.1 101940 49
2002-02-21 09:17:56 51°16.26 2°53.988 5.5 126 6.1 101940 49
2002-02-21 09:18:01 51°16.26 2°53.985 6.1 118 6.1 101940 50
2002-02-21 09:18:06 51°16.259 2°53.984 6.4 125 6.1 101940 50
2002-02-21 09:18:11 51°16.259 2°53.982 7.2 122 6.1 101940 52
2002-02-21 09:18:16 51°16.259 2°53.981 6.7 135 6.1 101940 52
2002-02-21 09:18:21 51°16.259 2°53.978 6.3 122 6.2 101940 53
2002-02-21 09:18:26 51°16.258 2°53.977 7.7 133 6.2 101940 53
2002-02-21 09:18:31 51°16.258 2°53.975 5.9 135 6.2 101940 49
2002-02-21 09:18:36 51°16.257 2°53.973 6.3 131 6.2 101940 49
2002-02-21 09:18:41 51°16.257 2°53.971 6.3 135 6.1 101940 47
2002-02-21 09:18:46 51°16.257 2°53.97 6.6 130 6.1 101940 47
2002-02-21 09:18:51 51°16.256 2°53.967 5.9 128 6.1 101940 47
2002-02-21 09:18:56 51°16.255 2°53.967 7.1 136 6.1 101940 47
2002-02-21 09:19:01 51°16.255 2°53.964 6.7 135 6.1 101940 46
2002-02-21 09:19:06 51°16.254 2°53.962 7 134 6.1 101940 46
2002-02-21 09:19:11 51°16.253 2°53.96 5.3 133 6.1 101930 47
2002-02-21 09:19:16 51°16.252 2°53.959 6.2 132 6.1 101930 47
2002-02-21 09:19:21 51°16.251 2°53.956 5.3 133 6.1 101940 46
2002-02-21 09:19:26 51°16.25 2°53.956 5.6 136 6.1 101940 46
2002-02-21 09:19:31 51°16.249 2°53.954 5.9 139 6.1 101940 46
2002-02-21 09:19:36 51°16.247 2°53.952 6 140 6.1 101940 46
2002-02-21 09:19:41 51°16.246 2°53.952 6.3 143 6.1 101940 48
2002-02-21 09:19:46 51°16.245 2°53.949 6.1 135 6.1 101940 48
2002-02-21 09:19:51 51°16.243 2°53.948 6.9 140 6.1 101940 50
2002-02-21 09:19:56 51°16.242 2°53.946 7.7 139 6.1 101940 50
2002-02-21 09:20:01 51°16.241 2°53.943 6.5 136 6.2 101930 50
2002-02-21 09:20:06 51°16.239 2°53.942 7.3 144 6.2 101930 50
2002-02-21 09:20:11 51°16.238 2°53.939 6.6 143 6.1 101930 51
2002-02-21 09:20:16 51°16.236 2°53.937 6.1 144 6.1 101930 51
2002-02-21 09:20:21 51°16.235 2°53.934 6.9 133 6.1 101940 51
2002-02-21 09:20:26 51°16.233 2°53.935 6.9 155 6.1 101940 51
2002-02-21 09:20:31 51°16.232 2°53.93 6.6 148 6.1 101940 49
2002-02-21 09:20:36 51°16.231 2°53.929 5.5 144 6.1 101940 49
2002-02-21 09:20:41 51°16.229 2°53.926 6.2 134 6.1 101930 48
2002-02-21 09:20:45 51°16.228 2°53.926 6.8 153 6.1 101930 48
2002-02-21 09:20:51 51°16.226 2°53.921 5.9 139 6.2 101940 48
2002-02-21 09:20:56 51°16.224 2°53.92 5.6 144 6.2 101940 48
2002-02-21 09:21:01 51°16.223 2°53.917 5.3 139 6.1 101930 50
2002-02-21 09:21:06 51°16.221 2°53.916 5.4 147 6.1 101930 50
2002-02-21 09:21:11 51°16.219 2°53.912 5.8 143 6.1 101930 47
2002-02-21 09:21:16 51°16.218 2°53.911 5.7 139 6.1 101930 47
2002-02-21 09:21:21 51°16.216 2°53.909 6.4 143 6.1 101940 46
2002-02-21 09:21:25 51°16.214 2°53.907 6.3 138 6.1 101940 46
2002-02-21 09:21:31 51°16.212 2°53.905 5.8 151 6.1 101930 45
2002-02-21 09:21:36 51°16.21 2°53.901 5.8 143 6.1 101930 45
2002-02-21 09:21:41 51°16.209 2°53.901 5.9 152 6.1 101930 46
2002-02-21 09:21:46 51°16.207 2°53.897 6.4 150 6.1 101930 46
2002-02-21 09:21:51 51°16.205 2°53.896 6 157 6.1 101930 48
2002-02-21 09:21:56 51°16.203 2°53.892 6 149 6.1 101930 48
2002-02-21 09:22:01 51°16.201 2°53.891 7.2 157 6.2 101940 48
2002-02-21 09:22:06 51°16.2 2°53.888 6.9 147 6.2 101940 48
2002-02-21 09:22:11 51°16.198 2°53.885 6.6 148 6.2 101940 49
2002-02-21 09:22:16 51°16.196 2°53.884 5.9 156 6.2 101940 49
2002-02-21 09:22:21 51°16.194 2°53.88 6.6 149 6.2 101930 49
2002-02-21 09:22:26 51°16.192 2°53.88 6.9 154 6.2 101930 49
2002-02-21 09:22:31 51°16.191 2°53.875 6 144 6.2 101920 48
2002-02-21 09:22:36 51°16.188 2°53.875 7 161 6.2 101920 48
2002-02-21 09:22:41 51°16.187 2°53.871 6.6 148 6.2 101920 49
2002-02-21 09:22:46 51°16.184 2°53.87 7 163 6.2 101920 49
2002-02-21 09:22:51 51°16.183 2°53.866 6.6 159 6.1 101920 46
2002-02-21 09:22:56 51°16.181 2°53.865 5.3 152 6.1 101920 46
2002-02-21 09:23:01 51°16.179 2°53.862 6.5 155 6.1 101930 45
2002-02-21 09:23:06 51°16.177 2°53.86 6.4 167 6.1 101930 45
2002-02-21 09:23:11 51°16.176 2°53.857 6 166 6.1 101920 45
2002-02-21 09:23:16 51°16.174 2°53.854 5.5 164 6.1 101920 45
2002-02-21 09:23:21 51°16.172 2°53.852 6 179 6.1 101920 45
2002-02-21 09:23:26 51°16.171 2°53.849 4.8 162 6.1 101920 45
2002-02-21 09:23:31 51°16.17 2°53.847 5.3 165 6.1 101930 46
2002-02-21 09:23:36 51°16.167 2°53.847 5.7 181 6.1 101930 46
2002-02-21 09:23:41 51°16.168 2°53.844 5 162 6.2 101930 47
2002-02-21 09:23:46 51°16.166 2°53.844 7.3 190 6.2 101930 47
2002-02-21 09:23:51 51°16.167 2°53.843 5.9 183 6.2 101920 46
2002-02-21 09:23:56 51°16.165 2°53.843 6.7 185 6.2 101920 46
2002-02-21 09:24:01 51°16.165 2°53.843 7.1 191 6.2 101920 48
2002-02-21 09:24:06 51°16.164 2°53.844 7.2 197 6.2 101920 48
2002-02-21 09:24:11 51°16.163 2°53.845 7 210 6.2 101930 48
2002-02-21 09:24:16 51°16.163 2°53.846 7.5 208 6.2 101930 48
2002-02-21 09:24:20 51°16.161 2°53.847 8.4 204 6.2 101930 48
2002-02-21 09:24:26 51°16.161 2°53.85 2.6 203 6.2 101930 48
2002-02-21 09:24:31 51°16.159 2°53.852 5.2 218 6.2 101930 46
2002-02-21 09:24:36 51°16.156 2°53.854 6.4 218 6.2 101930 46
2002-02-21 09:24:41 51°16.155 2°53.857 2.6 226 6.2 101940 45
2002-02-21 09:24:46 51°16.152 2°53.859 4.1 212 6.2 101940 45
2002-02-21 09:24:51 51°16.151 2°53.863 4.5 210 6.2 101940 46
2002-02-21 09:24:56 51°16.149 2°53.866 4.8 203 6.2 101940 46
2002-02-21 09:25:01 51°16.147 2°53.87 4.9 213 6.2 101930 46
2002-02-21 09:25:06 51°16.144 2°53.873 6.7 219 6.2 101930 46
2002-02-21 09:25:11 51°16.143 2°53.877 6.1 205 6.2 101930 48
2002-02-21 09:25:16 51°16.141 2°53.882 6.6 206 6.2 101930 48
2002-02-21 09:25:21 51°16.139 2°53.886 7.1 203 6.2 101930 47
2002-02-21 09:25:26 51°16.137 2°53.891 7.3 203 6.2 101930 47
2002-02-21 09:25:31 51°16.136 2°53.897 5.7 199 6.2 101940 46
2002-02-21 09:25:36 51°16.135 2°53.903 6.6 192 6.2 101940 46
2002-02-21 09:25:41 51°16.133 2°53.909 6 194 6.2 101950 47
2002-02-21 09:25:46 51°16.132 2°53.917 7.2 193 6.2 101950 47
2002-02-21 09:25:51 51°16.132 2°53.924 6.8 184 6.2 101930 46
2002-02-21 09:25:56 51°16.131 2°53.933 9.2 192 6.2 101930 46
2002-02-21 09:26:01 51°16.132 2°53.941 7.1 190 6.2 101940 49
2002-02-21 09:26:06 51°16.132 2°53.95 7.5 189 6.2 101940 49
2002-02-21 09:26:10 51°16.132 2°53.957 7.2 189 6.2 101930 51
2002-02-21 09:26:16 51°16.134 2°53.968 7 177 6.2 101930 51
2002-02-21 09:26:21 51°16.132 2°53.978 8.8 195 6.2 101920 50
2002-02-21 09:26:26 51°16.134 2°53.988 7.2 184 6.2 101920 50
2002-02-21 09:26:31 51°16.133 2°53.998 8.3 194 6.2 101940 51
2002-02-21 09:26:36 51°16.134 2°54.009 6.6 194 6.2 101940 51
2002-02-21 09:26:40 51°16.132 2°54.018 6.7 196 6.3 101940 50
2002-02-21 09:26:46 51°16.131 2°54.031 6.6 202 6.3 101940 50
2002-02-21 09:26:51 51°16.129 2°54.042 6.6 211 6.3 101940 49
2002-02-21 09:26:56 51°16.126 2°54.052 6.6 206 6.3 101940 49
2002-02-21 09:27:01 51°16.124 2°54.063 5.9 195 6.3 101920 49
2002-02-21 09:27:06 51°16.119 2°54.074 7.1 197 6.3 101920 49
2002-02-21 09:27:11 51°16.116 2°54.084 5.9 195 6.3 101940 49
2002-02-21 09:27:16 51°16.113 2°54.095 7.3 200 6.3 101940 49
2002-02-21 09:27:21 51°16.11 2°54.106 6.9 197 6.3 101930 51
2002-02-21 09:27:26 51°16.107 2°54.117 7.8 197 6.3 101930 51
2002-02-21 09:27:31 51°16.105 2°54.128 7.7 200 6.3 101940 50
2002-02-21 09:27:36 51°16.104 2°54.14 7.2 194 6.3 101940 50
2002-02-21 09:27:41 51°16.101 2°54.152 7.5 198 6.3 101950 49
2002-02-21 09:27:46 51°16.101 2°54.163 7.4 195 6.3 101950 49
2002-02-21 09:27:51 51°16.099 2°54.174 8.2 196 6.3 101940 49
2002-02-21 09:27:56 51°16.101 2°54.186 5.9 176 6.3 101940 49
2002-02-21 09:28:01 51°16.098 2°54.198 8.5 189 6.3 101940 48
2002-02-21 09:28:06 51°16.099 2°54.209 6.6 182 6.3 101940 48
2002-02-21 09:28:11 51°16.098 2°54.221 7.3 186 6.3 101950 47
2002-02-21 09:28:16 51°16.098 2°54.233 8 189 6.3 101950 47
2002-02-21 09:28:21 51°16.098 2°54.244 7.9 189 6.3 101950 48
2002-02-21 09:28:26 51°16.099 2°54.256 8 184 6.3 101950 48
2002-02-21 09:28:31 51°16.097 2°54.269 8.6 194 6.3 101930 49
2002-02-21 09:28:36 51°16.098 2°54.281 5.8 182 6.3 101930 49
2002-02-21 09:28:41 51°16.097 2°54.293 6.9 188 6.3 101920 49
2002-02-21 09:28:46 51°16.096 2°54.305 8 186 6.3 101920 49
2002-02-21 09:28:51 51°16.096 2°54.318 6.7 181 6.3 101940 51
2002-02-21 09:28:56 51°16.095 2°54.33 7 181 6.3 101940 51
2002-02-21 09:29:01 51°16.094 2°54.343 7 184 6.4 101950 52
2002-02-21 09:29:06 51°16.093 2°54.356 8.4 189 6.4 101950 52
2002-02-21 09:29:11 51°16.092 2°54.368 8.7 183 6.4 101930 52
2002-02-21 09:29:16 51°16.09 2°54.381 7.7 185 6.4 101930 52
2002-02-21 09:29:21 51°16.089 2°54.394 8.2 190 6.4 101940 53
2002-02-21 09:29:26 51°16.087 2°54.407 8.8 190 6.4 101940 53
2002-02-21 09:29:31 51°16.086 2°54.42 8.8 187 6.4 101930 52
2002-02-21 09:29:36 51°16.084 2°54.433 7.6 186 6.4 101930 52
2002-02-21 09:29:41 51°16.083 2°54.446 8.2 183 6.4 101930 52
2002-02-21 09:29:46 51°16.081 2°54.459 9.3 183 6.4 101930 52
2002-02-21 09:29:51 51°16.082 2°54.471 8.3 184 6.4 101950 51
2002-02-21 09:29:56 51°16.081 2°54.484 8.8 184 6.4 101950 51
2002-02-21 09:30:01 51°16.082 2°54.496 8.2 175 6.4 101940 49
2002-02-21 09:30:06 51°16.083 2°54.508 8.5 180 6.4 101940 49
2002-02-21 09:30:11 51°16.083 2°54.52 8.2 182 6.4 101920 48
2002-02-21 09:30:16 51°16.086 2°54.532 7 169 6.4 101920 48
2002-02-21 09:30:21 51°16.085 2°54.544 9.2 183 6.3 101930 47
2002-02-21 09:30:26 51°16.088 2°54.556 8 173 6.3 101930 47
2002-02-21 09:30:31 51°16.087 2°54.569 8.1 183 6.3 101940 47
2002-02-21 09:30:36 51°16.088 2°54.581 8.3 182 6.3 101940 47
2002-02-21 09:30:41 51°16.088 2°54.593 8.8 189 6.3 101950 49
2002-02-21 09:30:46 51°16.087 2°54.605 9.4 190 6.3 101950 49
2002-02-21 09:30:51 51°16.086 2°54.618 8 196 6.4 101940 49
2002-02-21 09:30:56 51°16.084 2°54.63 8.9 200 6.4 101940 49
2002-02-21 09:31:01 51°16.082 2°54.641 9.1 199 6.4 101930 51
2002-02-21 09:31:06 51°16.08 2°54.655 7.1 196 6.4 101930 51
2002-02-21 09:31:11 51°16.078 2°54.667 7.8 200 6.4 101940 50
2002-02-21 09:31:16 51°16.075 2°54.678 7.4 192 6.4 101940 50
2002-02-21 09:31:21 51°16.074 2°54.692 7.8 199 6.3 101950 48
2002-02-21 09:31:26 51°16.071 2°54.703 6.8 197 6.3 101950 48
2002-02-21 09:31:31 51°16.071 2°54.716 6.6 190 6.3 101930 47
2002-02-21 09:31:36 51°16.068 2°54.728 8.6 194 6.3 101930 47
2002-02-21 09:31:41 51°16.069 2°54.741 6.9 185 6.3 101930 46
2002-02-21 09:31:46 51°16.067 2°54.753 8.3 188 6.3 101930 46
2002-02-21 09:31:51 51°16.067 2°54.765 9.1 190 6.3 101930 45
2002-02-21 09:31:56 51°16.067 2°54.777 8.1 185 6.3 101930 45
2002-02-21 09:32:01 51°16.067 2°54.789 9.5 190 6.3 101920 48
2002-02-21 09:32:06 51°16.067 2°54.802 7.7 181 6.3 101920 48
2002-02-21 09:32:11 51°16.068 2°54.814 7.4 187 6.3 101950 47
2002-02-21 09:32:16 51°16.068 2°54.826 8.9 186 6.3 101950 47
2002-02-21 09:32:21 51°16.069 2°54.839 8.8 191 6.2 101950 47
2002-02-21 09:32:26 51°16.069 2°54.852 8.8 196 6.2 101950 47
2002-02-21 09:32:31 51°16.068 2°54.864 8.8 190 6.2 101930 47
2002-02-21 09:32:36 51°16.069 2°54.877 6.3 190 6.2 101930 47
2002-02-21 09:32:41 51°16.068 2°54.889 7.1 189 6.2 101940 46
2002-02-21 09:32:46 51°16.066 2°54.901 6.9 194 6.2 101940 46
2002-02-21 09:32:51 51°16.066 2°54.915 6.4 192 6.2 101950 45
2002-02-21 09:32:56 51°16.063 2°54.926 8.8 200 6.2 101950 45
2002-02-21 09:33:01 51°16.063 2°54.938 7.4 193 6.2 101950 47
2002-02-21 09:33:06 51°16.061 2°54.952 8.5 201 6.2 101950 47
2002-02-21 09:33:11 51°16.06 2°54.964 8.1 198 6.2 101930 46
2002-02-21 09:33:16 51°16.059 2°54.977 6.6 193 6.2 101930 46
2002-02-21 09:33:21 51°16.058 2°54.99 6.2 193 6.2 101950 48
2002-02-21 09:33:26 51°16.057 2°55.003 7.8 198 6.2 101950 48
2002-02-21 09:33:31 51°16.056 2°55.016 8.1 190 6.2 101950 47
2002-02-21 09:33:36 51°16.056 2°55.029 6.6 188 6.2 101950 47
2002-02-21 09:33:41 51°16.056 2°55.041 8.2 178 6.2 101950 50
2002-02-21 09:33:46 51°16.056 2°55.054 8.9 186 6.2 101950 50
2002-02-21 09:33:51 51°16.058 2°55.066 7.6 177 6.2 101940 49
2002-02-21 09:33:56 51°16.058 2°55.078 8.5 183 6.2 101940 49
2002-02-21 09:34:01 51°16.061 2°55.089 7.7 174 6.3 101950 51
2002-02-21 09:34:06 51°16.062 2°55.101 8.7 185 6.3 101950 51
2002-02-21 09:34:11 51°16.065 2°55.112 8 179 6.3 101930 50
2002-02-21 09:34:16 51°16.067 2°55.124 7.4 180 6.3 101930 50
2002-02-21 09:34:21 51°16.071 2°55.134 6.6 165 6.3 101940 49
2002-02-21 09:34:26 51°16.072 2°55.146 7.1 175 6.3 101940 49
2002-02-21 09:34:31 51°16.075 2°55.157 7.4 171 6.3 101940 49
2002-02-21 09:34:36 51°16.077 2°55.169 8.4 181 6.3 101940 49
2002-02-21 09:34:41 51°16.08 2°55.181 6.7 171 6.3 101920 48
2002-02-21 09:34:46 51°16.08 2°55.193 7.7 180 6.3 101920 48
2002-02-21 09:34:51 51°16.082 2°55.204 6.7 177 6.3 101930 52
2002-02-21 09:34:56 51°16.082 2°55.217 7.1 172 6.3 101930 52
2002-02-21 09:35:01 51°16.084 2°55.228 7.2 175 6.3 101930 52
2002-02-21 09:35:06 51°16.085 2°55.24 7.1 174 6.3 101930 52
2002-02-21 09:35:11 51°16.087 2°55.251 6.6 169 6.3 101930 49
2002-02-21 09:35:16 51°16.09 2°55.262 7.7 163 6.3 101930 49
2002-02-21 09:35:21 51°16.092 2°55.274 7.7 163 6.3 101940 49
2002-02-21 09:35:26 51°16.095 2°55.285 7.2 166 6.3 101940 49
2002-02-21 09:35:31 51°16.098 2°55.295 7.9 165 6.4 101930 50
2002-02-21 09:35:36 51°16.101 2°55.307 7.6 163 6.4 101930 50
2002-02-21 09:35:41 51°16.104 2°55.317 8.7 171 6.4 101940 52
2002-02-21 09:35:46 51°16.107 2°55.328 8.1 161 6.4 101940 52
2002-02-21 09:35:51 51°16.11 2°55.339 6.8 171 6.3 101940 48
2002-02-21 09:35:56 51°16.113 2°55.35 7.7 164 6.3 101940 48
2002-02-21 09:36:00 51°16.116 2°55.359 6.8 160 6.3 101930 47
2002-02-21 09:36:06 51°16.119 2°55.373 8.6 168 6.3 101930 47
2002-02-21 09:36:11 51°16.123 2°55.383 7.1 161 6.4 101930 48
2002-02-21 09:36:16 51°16.125 2°55.395 8.4 163 6.4 101930 48
2002-02-21 09:36:21 51°16.129 2°55.405 8.3 156 6.3 101930 49
2002-02-21 09:36:26 51°16.131 2°55.417 8.9 170 6.3 101930 49
2002-02-21 09:36:31 51°16.137 2°55.427 8.2 165 6.4 101930 50
2002-02-21 09:36:36 51°16.139 2°55.437 7.8 167 6.4 101930 50
2002-02-21 09:36:41 51°16.143 2°55.448 9.1 162 6.4 101940 48
2002-02-21 09:36:46 51°16.145 2°55.46 9.5 168 6.4 101940 48
2002-02-21 09:36:51 51°16.148 2°55.47 7.5 159 6.4 101930 48
2002-02-21 09:36:56 51°16.15 2°55.482 8.7 172 6.4 101930 48
2002-02-21 09:37:01 51°16.153 2°55.493 7.8 167 6.3 101930 48
2002-02-21 09:37:06 51°16.157 2°55.503 8.8 162 6.3 101930 48
2002-02-21 09:37:11 51°16.16 2°55.514 7.9 163 6.3 101940 46
2002-02-21 09:37:16 51°16.164 2°55.524 7.3 154 6.3 101940 46
2002-02-21 09:37:21 51°16.166 2°55.535 9.1 163 6.3 101950 47
2002-02-21 09:37:26 51°16.17 2°55.545 8.6 166 6.3 101950 47
2002-02-21 09:37:31 51°16.174 2°55.554 8.8 164 6.3 101930 48
2002-02-21 09:37:36 51°16.177 2°55.565 7.5 174 6.3 101930 48
2002-02-21 09:37:41 51°16.182 2°55.574 8.5 158 6.3 101940 47
2002-02-21 09:37:46 51°16.186 2°55.584 8.4 166 6.3 101940 47
2002-02-21 09:37:51 51°16.189 2°55.594 9 174 6.3 101930 48
2002-02-21 09:37:56 51°16.194 2°55.604 8.1 171 6.3 101930 48
2002-02-21 09:38:01 51°16.196 2°55.615 7.5 168 6.3 101930 47
2002-02-21 09:38:06 51°16.199 2°55.626 7.5 172 6.3 101930 47
2002-02-21 09:38:11 51°16.201 2°55.637 7 172 6.3 101940 48
2002-02-21 09:38:16 51°16.203 2°55.649 6.1 173 6.3 101940 48
2002-02-21 09:38:21 51°16.204 2°55.66 7.1 182 6.3 101940 47
2002-02-21 09:38:26 51°16.206 2°55.672 6.3 171 6.3 101940 47
2002-02-21 09:38:31 51°16.205 2°55.684 6.8 173 6.3 101940 46
2002-02-21 09:38:36 51°16.205 2°55.696 6.6 178 6.3 101940 46
2002-02-21 09:38:41 51°16.206 2°55.708 5.9 164 6.3 101940 46
2002-02-21 09:38:46 51°16.205 2°55.721 8 188 6.3 101940 46
2002-02-21 09:38:51 51°16.207 2°55.732 5.8 168 6.3 101940 46
2002-02-21 09:38:56 51°16.207 2°55.744 7.6 179 6.3 101940 46
2002-02-21 09:39:01 51°16.209 2°55.756 7 175 6.3 101940 47
2002-02-21 09:39:06 51°16.211 2°55.766 7 166 6.3 101940 47
2002-02-21 09:39:11 51°16.213 2°55.777 7.1 169 6.3 101940 48
2002-02-21 09:39:16 51°16.216 2°55.786 6.7 170 6.3 101940 48
2002-02-21 09:39:21 51°16.218 2°55.794 7 169 6.3 101940 46
2002-02-21 09:39:26 51°16.221 2°55.802 6.7 171 6.3 101940 46
2002-02-21 09:39:31 51°16.223 2°55.811 7.9 176 6.3 101940 47
2002-02-21 09:39:36 51°16.227 2°55.817 6 162 6.3 101940 47
2002-02-21 09:39:41 51°16.229 2°55.824 6.6 169 6.3 101950 48
2002-02-21 09:39:46 51°16.232 2°55.83 6.1 166 6.3 101950 48
2002-02-21 09:39:51 51°16.234 2°55.837 7.1 174 6.3 101950 49
2002-02-21 09:39:56 51°16.237 2°55.842 6.9 180 6.3 101950 49
2002-02-21 09:40:01 51°16.24 2°55.847 6.4 171 6.3 101930 49
2002-02-21 09:40:06 51°16.242 2°55.854 7.4 179 6.3 101930 49
2002-02-21 09:40:11 51°16.246 2°55.858 6 172 6.3 101950 48
2002-02-21 09:40:16 51°16.249 2°55.862 5.1 161 6.3 101950 48
2002-02-21 09:40:21 51°16.251 2°55.867 6.5 164 6.4 101930 49
2002-02-21 09:40:26 51°16.254 2°55.872 6.2 171 6.4 101930 49
2002-02-21 09:40:31 51°16.256 2°55.876 5.5 168 6.3 101940 50
2002-02-21 09:40:36 51°16.258 2°55.881 6.1 166 6.3 101940 50
2002-02-21 09:40:41 51°16.26 2°55.885 5.4 164 6.4 101940 51
2002-02-21 09:40:46 51°16.262 2°55.89 6.3 166 6.4 101940 51
2002-02-21 09:40:51 51°16.265 2°55.894 5.1 163 6.4 101940 49
2002-02-21 09:40:56 51°16.266 2°55.899 5.7 171 6.4 101940 49
2002-02-21 09:41:01 51°16.268 2°55.903 5.7 172 6.3 101950 50
2002-02-21 09:41:06 51°16.27 2°55.908 6.2 179 6.3 101950 50
2002-02-21 09:41:11 51°16.271 2°55.912 6.6 179 6.3 101940 50
2002-02-21 09:41:16 51°16.273 2°55.916 6.6 171 6.3 101940 50
2002-02-21 09:41:21 51°16.274 2°55.921 6.7 184 6.3 101950 48
2002-02-21 09:41:26 51°16.277 2°55.924 6.2 169 6.3 101950 48
2002-02-21 09:41:31 51°16.277 2°55.93 6.6 186 6.3 101950 48
2002-02-21 09:41:36 51°16.28 2°55.932 5.2 172 6.3 101950 48
2002-02-21 09:41:41 51°16.28 2°55.938 6.4 183 6.3 101950 47
2002-02-21 09:41:46 51°16.282 2°55.941 5.1 176 6.3 101950 47
2002-02-21 09:41:51 51°16.282 2°55.946 6.7 185 6.3 101950 46
2002-02-21 09:41:56 51°16.284 2°55.948 4.3 173 6.3 101950 46
2002-02-21 09:42:01 51°16.285 2°55.952 4.4 169 6.3 101960 47
2002-02-21 09:42:06 51°16.285 2°55.955 5 167 6.3 101960 47
2002-02-21 09:42:11 51°16.286 2°55.958 4.8 181 6.3 101950 47
2002-02-21 09:42:16 51°16.287 2°55.96 5.2 175 6.3 101950 47
2002-02-21 09:42:21 51°16.287 2°55.963 5.9 181 6.3 101950 47
2002-02-21 09:42:26 51°16.288 2°55.964 4.7 164 6.3 101950 47
2002-02-21 09:42:31 51°16.287 2°55.967 5.9 187 6.3 101950 48
2002-02-21 09:42:36 51°16.289 2°55.967 3.9 147 6.3 101950 48
2002-02-21 09:42:41 51°16.287 2°55.971 5.8 186 6.3 101960 49
2002-02-21 09:42:46 51°16.289 2°55.971 3.8 156 6.3 101960 49
2002-02-21 09:42:51 51°16.288 2°55.973 5.9 175 6.3 101960 48
2002-02-21 09:42:56 51°16.289 2°55.974 4.2 163 6.3 101960 48
2002-02-21 09:43:01 51°16.288 2°55.975 5.8 174 6.3 101960 48
2002-02-21 09:43:06 51°16.289 2°55.976 4.3 172 6.3 101960 48
2002-02-21 09:43:11 51°16.29 2°55.976 5.2 167 6.3 101960 49
2002-02-21 09:43:16 51°16.289 2°55.977 5.7 170 6.3 101960 49
2002-02-21 09:43:21 51°16.29 2°55.976 4.4 158 6.3 101960 49
2002-02-21 09:43:26 51°16.289 2°55.977 5.2 177 6.3 101960 49
2002-02-21 09:43:31 51°16.289 2°55.977 6.9 179 6.3 101950 49
2002-02-21 09:43:36 51°16.29 2°55.975 5.3 157 6.3 101950 49
2002-02-21 09:43:41 51°16.289 2°55.976 6.1 165 6.3 101950 47
2002-02-21 09:43:46 51°16.288 2°55.977 6.7 170 6.3 101950 47
2002-02-21 09:43:51 51°16.289 2°55.975 6.1 163 6.3 101970 47
2002-02-21 09:43:56 51°16.288 2°55.976 6.6 176 6.3 101970 47
2002-02-21 09:44:01 51°16.288 2°55.974 6.3 173 6.3 101960 47
2002-02-21 09:44:06 51°16.288 2°55.974 5.9 173 6.3 101960 47
2002-02-21 09:44:11 51°16.287 2°55.974 5.7 172 6.3 101940 49
2002-02-21 09:44:16 51°16.287 2°55.973 5.5 170 6.3 101940 49
2002-02-21 09:44:21 51°16.287 2°55.973 5.6 172 6.3 101950 48
2002-02-21 09:44:26 51°16.287 2°55.972 4.3 155 6.3 101950 48
2002-02-21 09:44:31 51°16.286 2°55.972 5.7 164 6.3 101950 47
2002-02-21 09:44:36 51°16.286 2°55.973 6.7 176 6.3 101950 47
2002-02-21 09:44:41 51°16.287 2°55.97 4.6 147 6.3 101960 47
2002-02-21 09:44:46 51°16.286 2°55.973 6.9 171 6.3 101960 47
2002-02-21 09:44:51 51°16.287 2°55.972 5.4 157 6.2 101970 47
2002-02-21 09:44:56 51°16.287 2°55.974 6.1 160 6.2 101970 47
2002-02-21 09:45:01 51°16.289 2°55.976 6 161 6.2 101940 48
2002-02-21 09:45:06 51°16.29 2°55.977 6.3 166 6.2 101940 48
2002-02-21 09:45:11 51°16.292 2°55.979 6.6 170 6.3 101950 47
2002-02-21 09:45:16 51°16.294 2°55.982 6.2 165 6.3 101950 47
2002-02-21 09:45:21 51°16.296 2°55.985 7 170 6.2 101960 47
2002-02-21 09:45:26 51°16.297 2°55.989 6.2 170 6.2 101960 47
2002-02-21 09:45:31 51°16.3 2°55.992 5.9 173 6.2 101950 46
2002-02-21 09:45:36 51°16.301 2°55.998 6.5 183 6.2 101950 46
2002-02-21 09:45:41 51°16.303 2°56.002 5.5 179 6.2 101950 46
2002-02-21 09:45:46 51°16.303 2°56.008 6.2 188 6.2 101950 46
2002-02-21 09:45:51 51°16.306 2°56.014 5.7 181 6.2 101940 46
2002-02-21 09:45:56 51°16.305 2°56.021 5.4 183 6.2 101940 46
2002-02-21 09:46:01 51°16.307 2°56.027 5.4 185 6.2 101940 46
2002-02-21 09:46:06 51°16.306 2°56.034 6.7 191 6.2 101940 46
2002-02-21 09:46:11 51°16.308 2°56.041 5.5 193 6.2 101940 46
2002-02-21 09:46:16 51°16.308 2°56.048 5.4 196 6.2 101940 46
2002-02-21 09:46:21 51°16.307 2°56.056 4.7 194 6.2 101960 46
2002-02-21 09:46:26 51°16.306 2°56.064 6.6 208 6.2 101960 46
2002-02-21 09:46:31 51°16.305 2°56.071 4.2 197 6.2 101950 47
2002-02-21 09:46:36 51°16.302 2°56.079 5.7 208 6.2 101950 47
2002-02-21 09:46:41 51°16.301 2°56.086 4.5 198 6.2 101960 47
2002-02-21 09:46:46 51°16.297 2°56.094 6.9 216 6.2 101960 47
2002-02-21 09:46:51 51°16.294 2°56.101 4 200 6.2 101950 46
2002-02-21 09:46:56 51°16.291 2°56.109 5 206 6.2 101950 46
2002-02-21 09:47:01 51°16.287 2°56.116 4.9 213 6.2 101950 48
2002-02-21 09:47:06 51°16.284 2°56.124 4 213 6.2 101950 48
2002-02-21 09:47:11 51°16.279 2°56.129 3 214 6.2 101940 49
2002-02-21 09:47:16 51°16.276 2°56.136 2.5 233 6.2 101940 49
2002-02-21 09:47:21 51°16.271 2°56.142 1.4 239 6.2 101960 50
2002-02-21 09:47:26 51°16.267 2°56.147 1.6 249 6.2 101960 50
2002-02-21 09:47:31 51°16.262 2°56.151 1.6 214 6.2 101960 50
2002-02-21 09:47:36 51°16.257 2°56.157 1.1 251 6.2 101960 50
2002-02-21 09:47:41 51°16.252 2°56.16 1.4 229 6.2 101960 50
2002-02-21 09:47:46 51°16.246 2°56.164 1 251 6.2 101960 50
2002-02-21 09:47:51 51°16.24 2°56.167 3.3 271 6.2 101960 48
2002-02-21 09:47:56 51°16.236 2°56.169 3 269 6.2 101960 48
2002-02-21 09:48:01 51°16.229 2°56.171 2.7 266 6.1 101960 49
2002-02-21 09:48:06 51°16.223 2°56.174 2.6 289 6.1 101960 49
2002-02-21 09:48:11 51°16.218 2°56.174 2.3 291 6.1 101960 47
2002-02-21 09:48:16 51°16.211 2°56.175 2 283 6.1 101960 47
2002-02-21 09:48:21 51°16.206 2°56.175 2.4 295 6.1 101970 46
2002-02-21 09:48:26 51°16.2 2°56.175 2.2 288 6.1 101970 46
2002-02-21 09:48:31 51°16.193 2°56.175 1.8 307 6.1 101970 47
2002-02-21 09:48:36 51°16.187 2°56.174 2.2 298 6.1 101970 47
2002-02-21 09:48:41 51°16.181 2°56.174 2.1 336 6.1 101960 47
2002-02-21 09:48:46 51°16.174 2°56.172 1.2 19 6.1 101960 47
2002-02-21 09:48:51 51°16.168 2°56.17 1.3 304 6.1 101970 47
2002-02-21 09:48:56 51°16.162 2°56.168 1.7 324 6.1 101970 47
2002-02-21 09:49:01 51°16.155 2°56.166 2.3 331 6.1 101960 48
2002-02-21 09:49:06 51°16.149 2°56.162 2.3 325 6.1 101960 48
2002-02-21 09:49:11 51°16.143 2°56.16 2.9 357 6.1 101960 49
2002-02-21 09:49:16 51°16.137 2°56.154 2.1 320 6.1 101960 49
2002-02-21 09:49:21 51°16.131 2°56.152 2.4 8 6.2 101960 48
2002-02-21 09:49:26 51°16.125 2°56.146 2 348 6.2 101960 48
2002-02-21 09:49:31 51°16.119 2°56.141 1.8 353 6.2 101970 47
2002-02-21 09:49:36 51°16.113 2°56.137 2.5 12 6.2 101970 47
2002-02-21 09:49:41 51°16.109 2°56.13 1.7 1 6.2 101960 46
2002-02-21 09:49:46 51°16.102 2°56.125 3.4 23 6.2 101960 46
2002-02-21 09:49:51 51°16.098 2°56.117 1.8 353 6.2 101970 46
2002-02-21 09:49:56 51°16.092 2°56.113 3.3 36 6.2 101970 46
2002-02-21 09:50:01 51°16.088 2°56.103 1.2 330 6.2 101960 46
2002-02-21 09:50:06 51°16.081 2°56.1 4.1 38 6.2 101960 46
2002-02-21 09:50:11 51°16.078 2°56.09 1.2 13 6.2 101960 45
2002-02-21 09:50:16 51°16.072 2°56.085 2.2 37 6.2 101960 45
2002-02-21 09:50:21 51°16.068 2°56.076 1.7 32 6.2 101960 45
2002-02-21 09:50:26 51°16.064 2°56.069 2.8 43 6.2 101960 45
2002-02-21 09:50:31 51°16.06 2°56.061 2.6 36 6.2 101970 45
2002-02-21 09:50:36 51°16.055 2°56.055 2.7 42 6.2 101970 45
2002-02-21 09:50:41 51°16.052 2°56.046 1.8 44 6.2 101960 46
2002-02-21 09:50:46 51°16.048 2°56.039 4 43 6.2 101960 46
2002-02-21 09:50:51 51°16.044 2°56.03 3.6 132 6.2 101970 46
2002-02-21 09:50:56 51°16.042 2°56.021 2.8 50 6.2 101970 46
2002-02-21 09:51:01 51°16.038 2°56.014 4.6 134 6.3 101960 46
2002-02-21 09:51:06 51°16.036 2°56.005 3.4 52 6.3 101960 46
2002-02-21 09:51:11 51°16.033 2°55.996 3.3 45 6.3 101970 48
2002-02-21 09:51:16 51°16.03 2°55.988 3.2 48 6.3 101970 48
2002-02-21 09:51:21 51°16.028 2°55.979 3 49 6.3 101970 47
2002-02-21 09:51:26 51°16.024 2°55.971 4.3 131 6.3 101970 47
2002-02-21 09:51:31 51°16.024 2°55.962 2.7 50 6.3 101960 48
2002-02-21 09:51:36 51°16.02 2°55.954 3.1 50 6.3 101960 48
2002-02-21 09:51:41 51°16.018 2°55.945 3.4 50 6.3 101960 49
2002-02-21 09:51:46 51°16.016 2°55.937 3.2 55 6.3 101960 49
2002-02-21 09:51:51 51°16.015 2°55.929 3.4 59 6.3 101960 49
2002-02-21 09:51:56 51°16.011 2°55.921 4.5 52 6.3 101960 49
2002-02-21 09:52:01 51°16.011 2°55.912 2.4 65 6.3 101960 49
2002-02-21 09:52:06 51°16.008 2°55.905 5.5 49 6.3 101960 49
2002-02-21 09:52:11 51°16.007 2°55.897 4.1 52 6.3 101960 50
2002-02-21 09:52:16 51°16.006 2°55.889 4.8 63 6.3 101960 50
2002-02-21 09:52:21 51°16.002 2°55.881 5.6 45 6.3 101970 48
2002-02-21 09:52:26 51°16.002 2°55.874 4.1 62 6.3 101970 48
2002-02-21 09:52:31 51°15.999 2°55.867 3.7 49 6.3 101980 47
2002-02-21 09:52:36 51°15.997 2°55.859 3.4 65 6.3 101980 47
2002-02-21 09:52:41 51°15.996 2°55.853 4.7 54 6.3 101980 48
2002-02-21 09:52:46 51°15.995 2°55.846 3.5 62 6.3 101980 48
2002-02-21 09:52:51 51°15.993 2°55.839 4 55 6.3 101970 47
2002-02-21 09:52:56 51°15.991 2°55.833 4.8 53 6.3 101970 47
2002-02-21 09:53:01 51°15.99 2°55.827 5.6 56 6.3 101980 47
2002-02-21 09:53:06 51°15.99 2°55.821 3.6 67 6.3 101980 47
2002-02-21 09:53:11 51°15.987 2°55.815 4.9 59 6.3 101970 52
2002-02-21 09:53:16 51°15.988 2°55.808 4.8 60 6.3 101970 52
2002-02-21 09:53:21 51°15.987 2°55.802 4.5 62 6.3 101970 48
2002-02-21 09:53:26 51°15.987 2°55.796 4.8 62 6.3 101970 48
2002-02-21 09:53:31 51°15.985 2°55.79 6 68 6.3 101970 47
2002-02-21 09:53:36 51°15.986 2°55.785 4.2 79 6.3 101970 47
2002-02-21 09:53:41 51°15.984 2°55.779 5.1 72 6.3 101980 47
2002-02-21 09:53:46 51°15.984 2°55.774 5 76 6.3 101980 47
2002-02-21 09:53:51 51°15.983 2°55.768 3.9 76 6.3 101980 49
2002-02-21 09:53:56 51°15.982 2°55.764 5.5 67 6.3 101980 49
2002-02-21 09:54:01 51°15.982 2°55.758 5.3 64 6.2 101970 48
2002-02-21 09:54:06 51°15.982 2°55.755 3.2 86 6.2 101970 48
2002-02-21 09:54:11 51°15.98 2°55.748 5.7 70 6.3 101970 51
2002-02-21 09:54:16 51°15.982 2°55.745 4.6 82 6.3 101970 51
2002-02-21 09:54:21 51°15.98 2°55.738 6.2 75 6.2 101980 50
2002-02-21 09:54:26 51°15.981 2°55.735 3.6 77 6.2 101980 50
2002-02-21 09:54:31 51°15.98 2°55.728 5.2 76 6.2 101970 48
2002-02-21 09:54:36 51°15.98 2°55.725 3.5 90 6.2 101970 48
2002-02-21 09:54:41 51°15.979 2°55.718 6 77 6.2 101970 48
2002-02-21 09:54:46 51°15.98 2°55.714 3.7 104 6.2 101970 48
2002-02-21 09:54:51 51°15.979 2°55.709 5.6 82 6.2 101970 49
2002-02-21 09:54:56 51°15.979 2°55.704 3.3 82 6.2 101970 49
2002-02-21 09:55:01 51°15.978 2°55.699 4.5 77 6.2 101970 48
2002-02-21 09:55:06 51°15.978 2°55.694 4.5 77 6.2 101970 48
2002-02-21 09:55:11 51°15.978 2°55.691 4.7 70 6.2 101960 48
2002-02-21 09:55:16 51°15.977 2°55.686 4 81 6.2 101960 48
2002-02-21 09:55:21 51°15.977 2°55.681 4.8 78 6.2 101970 50
2002-02-21 09:55:26 51°15.977 2°55.677 4 83 6.2 101970 50
2002-02-21 09:55:31 51°15.976 2°55.672 4.6 81 6.2 101970 51
2002-02-21 09:55:36 51°15.976 2°55.667 3.6 83 6.2 101970 51
2002-02-21 09:55:41 51°15.975 2°55.663 4.3 86 6.2 101980 53
2002-02-21 09:55:46 51°15.976 2°55.658 3.8 92 6.2 101980 53
2002-02-21 09:55:51 51°15.975 2°55.652 4.7 81 6.2 101970 49
2002-02-21 09:55:56 51°15.975 2°55.648 4.1 91 6.2 101970 49
2002-02-21 09:56:01 51°15.975 2°55.643 3.7 91 6.1 101980 47
2002-02-21 09:56:06 51°15.975 2°55.638 4 85 6.1 101980 47
2002-02-21 09:56:11 51°15.975 2°55.633 3.7 85 6.1 101980 47
2002-02-21 09:56:16 51°15.975 2°55.628 4.4 86 6.1 101980 47
2002-02-21 09:56:21 51°15.975 2°55.623 4 83 6.1 101970 47
2002-02-21 09:56:26 51°15.975 2°55.619 4.2 90 6.1 101970 47
2002-02-21 09:56:31 51°15.975 2°55.613 3.9 84 6.1 101980 46
2002-02-21 09:56:36 51°15.975 2°55.61 3.3 102 6.1 101980 46
2002-02-21 09:56:41 51°15.974 2°55.604 4.2 81 6.1 101980 47
2002-02-21 09:56:46 51°15.975 2°55.6 3.5 101 6.1 101980 47
2002-02-21 09:56:51 51°15.974 2°55.595 4 92 6.1 101970 47
2002-02-21 09:56:56 51°15.974 2°55.59 3.9 94 6.1 101970 47
2002-02-21 09:57:01 51°15.974 2°55.585 3.6 92 6.1 101980 48
2002-02-21 09:57:06 51°15.974 2°55.581 4.4 91 6.1 101980 48
2002-02-21 09:57:11 51°15.975 2°55.576 3.9 98 6.1 101980 46
2002-02-21 09:57:16 51°15.975 2°55.572 3.7 99 6.1 101980 46
2002-02-21 09:57:21 51°15.974 2°55.566 3.8 93 6.1 101980 47
2002-02-21 09:57:26 51°15.974 2°55.562 3.5 95 6.1 101980 47
2002-02-21 09:57:31 51°15.974 2°55.557 3.4 97 6.1 101970 47
2002-02-21 09:57:36 51°15.974 2°55.553 3.7 91 6.1 101970 47
2002-02-21 09:57:41 51°15.974 2°55.547 3 92 6.1 101990 47
2002-02-21 09:57:47 51°15.974 2°55.543 3.6 104 6.1 101990 47
2002-02-21 09:57:51 51°15.973 2°55.538 3.6 91 6.1 101980 46
2002-02-21 09:57:56 51°15.973 2°55.534 3.5 92 6.1 101980 46
2002-02-21 09:58:01 51°15.973 2°55.53 3.7 106 6.1 101990 46
2002-02-21 09:58:06 51°15.972 2°55.524 3.8 99 6.1 101990 46
2002-02-21 09:58:11 51°15.973 2°55.521 3.4 115 6.1 101980 47
2002-02-21 09:58:16 51°15.972 2°55.515 3.9 91 6.1 101980 47
2002-02-21 09:58:21 51°15.973 2°55.511 3.4 103 6.1 101970 49
2002-02-21 09:58:26 51°15.972 2°55.506 4.1 115 6.1 101970 49
2002-02-21 09:58:31 51°15.973 2°55.502 3.7 106 6.1 101980 49
2002-02-21 09:58:36 51°15.972 2°55.497 4.4 104 6.1 101980 49
2002-02-21 09:58:41 51°15.973 2°55.493 3.5 110 6.1 101990 48
2002-02-21 09:58:46 51°15.972 2°55.488 4.4 92 6.1 101990 48
2002-02-21 09:58:51 51°15.973 2°55.484 3.8 97 6.1 101980 48
2002-02-21 09:58:56 51°15.973 2°55.481 3.8 98 6.1 101980 48
2002-02-21 09:59:01 51°15.973 2°55.475 4.4 91 6.1 101970 49
2002-02-21 09:59:06 51°15.973 2°55.472 4 98 6.1 101970 49
2002-02-21 09:59:11 51°15.973 2°55.467 3.9 100 6.1 101990 50
2002-02-21 09:59:16 51°15.973 2°55.463 3.2 109 6.1 101990 50
2002-02-21 09:59:21 51°15.973 2°55.458 3.8 107 6.1 101980 48
2002-02-21 09:59:26 51°15.973 2°55.454 4.4 116 6.1 101980 48
2002-02-21 09:59:31 51°15.974 2°55.449 3.6 103 6.1 101970 48
2002-02-21 09:59:36 51°15.974 2°55.445 3.3 122 6.1 101970 48
2002-02-21 09:59:41 51°15.974 2°55.439 3.3 107 6.1 101990 51
2002-02-21 09:59:46 51°15.975 2°55.436 4.2 118 6.1 101990 51
2002-02-21 09:59:51 51°15.975 2°55.428 4.2 93 6.1 101980 52
2002-02-21 09:59:56 51°15.976 2°55.426 3.9 119 6.1 101980 52
2002-02-21 10:00:01 51°15.975 2°55.419 3.7 93 6.1 101990 52
2002-02-21 10:00:06 51°15.976 2°55.416 3.5 112 6.1 101990 52
2002-02-21 10:00:11 51°15.976 2°55.41 4.3 117 6.1 101980 50
2002-02-21 10:00:16 51°15.977 2°55.404 4 116 6.1 101980 50
2002-02-21 10:00:21 51°15.977 2°55.4 4 107 6.1 101990 48
2002-02-21 10:00:26 51°15.978 2°55.395 4 106 6.1 101990 48
2002-02-21 10:00:31 51°15.977 2°55.389 4 87 6.1 101980 48
2002-02-21 10:00:36 51°15.978 2°55.384 3.4 96 6.1 101980 48
2002-02-21 10:00:41 51°15.978 2°55.378 4.6 96 6.1 101990 49
2002-02-21 10:00:46 51°15.979 2°55.374 3.9 100 6.1 101990 49
2002-02-21 10:00:51 51°15.978 2°55.367 4.4 88 6.1 101980 48
2002-02-21 10:00:56 51°15.98 2°55.363 3.6 113 6.1 101980 48
2002-02-21 10:01:01 51°15.979 2°55.357 5.3 109 6.1 101990 50
2002-02-21 10:01:06 51°15.981 2°55.353 4.3 117 6.1 101990 50
2002-02-21 10:01:11 51°15.981 2°55.347 4.2 111 6.1 101980 51
2002-02-21 10:01:16 51°15.982 2°55.343 4.5 118 6.1 101980 51
2002-02-21 10:01:21 51°15.983 2°55.337 6.2 110 6.1 101980 49
2002-02-21 10:01:26 51°15.984 2°55.333 5.4 122 6.1 101980 49
2002-02-21 10:01:31 51°15.984 2°55.326 6.2 110 6.1 101980 49
2002-02-21 10:01:36 51°15.986 2°55.323 5.6 114 6.1 101980 49
2002-02-21 10:01:41 51°15.986 2°55.317 5.6 111 6.1 101970 50
2002-02-21 10:01:46 51°15.988 2°55.313 5.3 116 6.1 101970 50
2002-02-21 10:01:51 51°15.989 2°55.309 5.4 114 6.1 101980 51
2002-02-21 10:01:56 51°15.99 2°55.304 4.8 118 6.1 101980 51
2002-02-21 10:02:01 51°15.99 2°55.3 5 116 6.1 101990 49
2002-02-21 10:02:06 51°15.992 2°55.296 4.7 124 6.1 101990 49
2002-02-21 10:02:11 51°15.993 2°55.291 5.3 120 6.1 101980 49
2002-02-21 10:02:16 51°15.994 2°55.287 5.3 128 6.1 101980 49
2002-02-21 10:02:21 51°15.995 2°55.283 4.8 127 6.1 101980 49
2002-02-21 10:02:26 51°15.996 2°55.279 4.2 130 6.1 101980 49
2002-02-21 10:02:31 51°15.997 2°55.275 5 130 6.1 101990 48
2002-02-21 10:02:36 51°15.997 2°55.27 4.5 121 6.1 101990 48